Flag for Poland Weather past 2 weeks in Dąbrowa Górnicza, Poland

Now
57 °F

Light rain. Clear.


Feels Like: 57 °F
Forecast: 58 / 69 °F
Wind: 5 mph from Southeast

Location: Katowice Airport

Current Time: Sep 20, 2014 at 6:05:28 AM

Latest Report: Sep 20, 2014 at 5:30 AM


Visibility: 4 mi

Pressure: 29.95 "Hg

Humidity: 94%

Dew point: 55 °F

Location of Dąbrowa GórniczaLocation

Historic Weather in Dąbrowa Górnicza — Graph

°F

Dąbrowa Górnicza temperature yesterday

Maximum temperature yesterday: 73 °F (at 3:00 PM)
Minimum temperature yesterday: 48 °F (at 2:00 AM)
Average temperature yesterday: 62 °F

Past Weeks' High & Low Weather Summary

 TemperatureHumidityPressure
High79 °F (Sep 8, 3:00 PM)100% (Sep 6, 2:00 AM)30.27 "Hg (Sep 6, 2:00 AM)
Low46 °F (Sep 13, 5:30 AM)38% (Sep 19, 1:00 PM)29.92 "Hg (Sep 6, 4:00 PM)
Average62 °F79%30.04 "Hg
* Reported Sep 5 5:00 AM — Sep 20 5:00 AM, Dąbrowa Górnicza, Weather by CustomWeather, © 2014

Note: Actual official high and low records may vary slightly from our data, if they occured in-between our weather recording intervals... More about our weather records

Advertising

Dąbrowa Górnicza weather history for previous 24 hours

 ConditionsComfort  
Time TempWeatherWind HumidityBarometerVisibility
5:00 AM
Sep 20
59 °FLight rain. Clear.9 mph82%29.98 "HgN/A
4:30 AM57 °FClear.5 mph88%29.98 "Hg10 mi
4:00 AM59 °FClear.5 mph77%30.01 "Hg10 mi
3:00 AM59 °FClear.6 mph77%29.98 "Hg10 mi
2:30 AM59 °FPassing clouds.3 mph77%29.98 "HgN/A
2:00 AM59 °FClear.5 mph77%29.98 "Hg10 mi
1:30 AM59 °FPassing clouds.5 mph77%30.01 "HgN/A
1:00 AM59 °FPassing clouds.3 mph77%30.01 "HgN/A
12:30 AM59 °FClear.3 mph77%30.01 "Hg10 mi
12:00 AM59 °FClear.1 mph82%30.01 "Hg10 mi
11:30 PM
Sep 19
59 °FClear.2 mph77%30.01 "Hg10 mi
11:00 PM61 °FPassing clouds.3 mph77%30.01 "HgN/A
10:30 PM61 °FPassing clouds.5 mph77%30.01 "HgN/A
10:00 PM63 °FPassing clouds.6 mph73%30.01 "HgN/A
9:30 PM64 °FPassing clouds.6 mph68%30.01 "HgN/A
9:00 PM66 °FPassing clouds.3 mph64%30.04 "HgN/A
8:30 PM66 °FPassing clouds.3 mph64%30.01 "HgN/A
8:00 PM66 °FPassing clouds.3 mph60%30.04 "HgN/A
7:30 PM66 °FPassing clouds.5 mph60%30.01 "HgN/A
7:00 PM68 °FPassing clouds.5 mph56%30.01 "HgN/A
6:30 PM68 °FPassing clouds.3 mph56%30.01 "HgN/A
6:00 PM70 °FPassing clouds.6 mph53%30.01 "HgN/A
5:30 PM72 °FPassing clouds.5 mph50%30.01 "HgN/A
5:00 PM72 °FPassing clouds.6 mph47%30.04 "HgN/A
4:30 PM72 °FPassing clouds.8 mph47%30.04 "HgN/A
4:00 PM72 °FPassing clouds.8 mph47%30.04 "HgN/A
3:30 PM73 °FPassing clouds.10 mph41%30.04 "HgN/A
3:00 PM73 °FPassing clouds.6 mph41%30.04 "HgN/A
2:30 PM72 °FPassing clouds.7 mph47%30.04 "HgN/A
2:00 PM72 °FPassing clouds.7 mph44%30.07 "HgN/A
1:30 PM72 °FPassing clouds.7 mph41%30.07 "HgN/A
1:00 PM72 °FPassing clouds.10 mph38%30.07 "HgN/A
12:30 PM70 °FPassing clouds.10 mph40%30.07 "HgN/A
12:00 PM70 °FPassing clouds.9 mph43%30.07 "HgN/A
11:30 AM70 °FPassing clouds.9 mph46%30.07 "HgN/A
11:00 AM68 °FPassing clouds.10 mph53%30.09 "HgN/A
10:30 AM66 °FPassing clouds.9 mph52%30.09 "HgN/A
10:00 AM66 °FSunny.9 mph60%30.09 "Hg10 mi
9:30 AM63 °FPassing clouds.7 mph64%30.09 "HgN/A
9:00 AM63 °FPassing clouds.7 mph64%30.09 "HgN/A
8:30 AM61 °FPassing clouds.6 mph68%30.09 "HgN/A
8:00 AM57 °FSunny.6 mph72%30.09 "Hg10 mi
7:30 AM54 °FSunny.6 mph82%30.09 "Hg10 mi
7:00 AM54 °FClear.6 mph82%30.09 "Hg10 mi
6:30 AM54 °FClear.7 mph82%30.09 "Hg10 mi
6:00 AM54 °FClear.7 mph82%30.09 "Hg10 mi
Weather by CustomWeather, © 2014

See weather overviewHow to use our weather pages